Location: Buch
(50.1863°N, 11.0141°E)
Time: 05:34:48
(UTC+00:00)

NOSS 3-2 (A) - Pass Details

Date: 18 January 2020
Orbit: 809 x 1399 km, 63.4° (Epoch: 20 February)

Event Time Altitude Azimuth Distance (km) Brightness Sun altitude
Exits shadow 03:55:57 40° 341° (NNW) 1,690 4.5 -30.0°
Maximum altitude 03:58:36 58° 38° (NE) 1,407 4.4 -29.6°
Drops below altitude 10° 04:06:39 10° 117° (ESE) 3,363 7.0 -28.3°
Sets 04:09:43 0° 121° (ESE) 4,384 7.8 -27.8°
